カタログに戻る

FENGYUN 1C DEB

LostPO
NORAD 32216·DEBRIS·🇨🇳 China

打ち上げ May 10, 1999 から Taiyuan Satellite Launch Center

Loading…

次のパス (今後24時間)

TLE

古いSource: Space-Track

元期: Feb 24, 2026, 00:17 UTC

1 32216U 99025CVN 26055.01228725  .00115767  00000-0  59380-2 0  9998
2 32216  99.5157 136.7955 0013772  16.9932 343.1753 15.15930920638400

AllMySatでFENGYUN 1C DEBをリアルタイム追跡

Download on the App Store